DW0664 Weather Reports


time (UTC)temp
C
wind
direction
speed
KPH
gust
KPH
rain 1hr
cm
rain 24hr
cm
rain mn
cm
humidity
%
barometer
mb
20260508144212 17 83 1.6 3.2 0.00 0.05 0.05 95 1015.6
20260508143709 17 114 1.6 1.6 0.00 0.05 0.05 96 1015.5
20260508143206 17 75 0.0 1.6 0.00 0.05 0.05 96 1015.4
20260508142702 17 82 1.6 1.6 0.00 0.05 0.05 96 1015.5
20260508142159 17 82 3.2 3.2 0.00 0.05 0.05 96 1015.3
20260508141655 17 52 0.0 1.6 0.00 0.05 0.05 97 1015.4
20260508141153 17 89 3.2 3.2 0.00 0.05 0.05 97 1015.4
20260508140651 16 85 1.6 6.4 0.00 0.05 0.05 97 1015.5
20260508140147 17 73 0.0 0.0 0.00 0.05 0.05 97 1015.5
20260508135643 17 63 0.0 3.2 0.00 0.05 0.05 97 1015.5
20260508135139 16 70 0.0 0.0 0.00 0.05 0.05 97 1015.6
20260508134636 16 63 0.0 1.6 0.00 0.05 0.05 97 1015.4
20260508134133 16 103 1.6 3.2 0.00 0.05 0.05 97 1015.3
20260508133629 16 72 0.0 1.6 0.00 0.05 0.05 97 1015.4
20260508133127 16 78 0.0 3.2 0.00 0.05 0.05 97 1015.3
20260508132625 16 72 1.6 3.2 0.00 0.05 0.05 97 1015.5
20260508132121 16 83 1.6 3.2 0.00 0.05 0.05 97 1015.6
20260508131617 16 72 0.0 1.6 0.00 0.05 0.05 97 1015.5
20260508131114 16 65 0.0 0.0 0.00 0.05 0.05 97 1015.4
20260508130611 16 64 0.0 0.0 0.18 0.05 0.05 96 1015.7
20260508130108 16 62 0.0 0.0 0.30 0.05 0.05 96 1015.6
20260508125608 16 62 0.0 1.6 0.13 0.03 0.03 96 1015.8
20260508125106 16 74 0.0 1.6 0.00 0.00 0.00 96 1015.7
20260508124604 16 79 0.0 0.0 0.00 0.00 0.00 95 1015.7
20260508124100 16 68 0.0 1.6 0.00 0.00 0.00 95 1015.8
20260508123559 16 75 0.0 1.6 0.00 0.00 0.00 94 1015.7
20260508123055 16 62 0.0 0.0 0.00 0.00 0.00 94 1015.7
20260508122552 16 63 0.0 1.6 0.00 0.00 0.00 93 1015.9
20260508122049 16 61 0.0 1.6 0.00 0.00 0.00 93 1016.1
20260508121548 16 66 0.0 1.6 0.00 0.00 0.00 92 1016.0
20260508121045 16 58 0.0 0.0 0.00 0.00 0.00 91 1016.0
20260508120542 16 66 0.0 0.0 0.00 0.00 0.00 91 1016.0
20260508120041 16 69 0.0 1.6 0.00 0.00 0.00 90 1016.1
20260508115537 16 65 0.0 1.6 0.00 0.00 0.00 90 1016.0
20260508115034 16 35 1.6 3.2 0.00 0.00 0.00 90 1016.1
20260508114531 16 60 0.0 4.8 0.00 0.00 0.00 90 1016.0
20260508114027 16 46 1.6 3.2 0.00 0.00 0.00 89 1016.2
20260508113525 16 70 0.0 1.6 0.00 0.00 0.00 89 1016.0
20260508113023 16 65 0.0 1.6 0.00 0.00 0.00 89 1015.9
20260508112519 16 61 0.0 1.6 0.00 0.00 0.00 89 1015.9
20260508112016 16 63 0.0 1.6 0.00 0.00 0.00 89 1015.7
20260508111513 16 64 0.0 1.6 0.00 0.00 0.00 89 1015.7
20260508111010 16 63 0.0 1.6 0.00 0.00 0.00 89 1015.5
20260508110508 17 63 0.0 1.6 0.00 0.00 0.00 89 1015.4
20260508110003 17 55 0.0 1.6 0.00 0.00 0.00 89 1015.5
20260508105458 16 60 0.0 0.0 0.00 0.00 0.00 89 1015.3
20260508104956 16 63 0.0 0.0 0.00 0.00 0.00 89 1015.0
20260508104453 16 65 0.0 0.0 0.00 0.00 0.00 88 1015.3
20260508103950 16 66 0.0 0.0 0.00 0.00 0.00 88 1015.5
20260508103447 17 66 0.0 0.0 0.00 0.00 0.00 88 1015.5
20260508102943 17 66 0.0 0.0 0.00 0.00 0.00 88 1015.7
20260508102442 16 66 0.0 0.0 0.00 0.00 0.00 88 1015.7
20260508101939 16 53 0.0 0.0 0.00 0.00 0.00 88 1015.8
20260508101436 17 61 0.0 0.0 0.00 0.00 0.00 88 1015.5
20260508100933 17 62 0.0 1.6 0.00 0.00 0.00 87 1015.7
20260508100432 17 64 0.0 0.0 0.00 0.00 0.00 87 1015.8
20260508095928 17 65 0.0 0.0 0.00 0.00 0.00 86 1015.5
20260508095426 17 66 0.0 0.0 0.00 0.00 0.00 86 1015.4
20260508094922 17 61 0.0 0.0 0.00 0.00 0.00 85 1015.6
20260508094419 17 62 0.0 0.0 0.00 0.00 0.00 84 1015.9
20260508093916 17 60 0.0 0.0 0.00 0.00 0.00 84 1015.7
20260508093414 17 61 0.0 0.0 0.00 0.00 0.00 84 1015.9
20260508092911 17 65 0.0 0.0 0.00 0.00 0.00 84 1015.7
20260508092409 17 63 0.0 0.0 0.00 0.00 0.00 85 1015.7
20260508091907 17 67 0.0 0.0 0.00 0.00 0.00 85 1015.5
20260508091403 17 63 0.0 1.6 0.00 0.00 0.00 84 1015.4
20260508090900 17 63 0.0 0.0 0.00 0.00 0.00 85 1015.3
20260508090359 17 65 0.0 1.6 0.00 0.00 0.00 84 1015.0
20260508085854 17 59 0.0 0.0 0.00 0.00 0.00 85 1015.2
20260508085351 17 65 0.0 1.6 0.00 0.00 0.00 85 1015.4
20260508084848 16 63 0.0 1.6 0.00 0.00 0.00 84 1015.0
20260508084345 16 64 0.0 3.2 0.00 0.00 0.00 84 1015.3
20260508083843 16 64 0.0 3.2 0.00 0.00 0.00 85 1015.4
20260508083340 16 67 0.0 4.8 0.00 0.00 0.00 85 1015.3
20260508082839 16 64 0.0 1.6 0.00 0.00 0.00 85 1015.2
20260508082337 16 60 0.0 1.6 0.00 0.00 0.00 85 1015.3
20260508081834 16 50 0.0 1.6 0.00 0.00 0.00 85 1015.2
20260508081331 16 63 0.0 1.6 0.00 0.00 0.00 85 1015.5
20260508080828 16 54 0.0 1.6 0.00 0.00 0.00 85 1015.4
20260508080326 16 55 0.0 0.0 0.00 0.00 0.00 85 1015.3
20260508075822 16 65 0.0 1.6 0.00 0.00 0.00 85 1015.8
20260508075319 16 62 0.0 1.6 0.00 0.00 0.00 86 1015.7
20260508074817 16 66 0.0 0.0 0.00 0.00 0.00 86 1016.2
20260508074314 16 59 0.0 0.0 0.00 0.00 0.00 87 1016.3
20260508073811 16 61 0.0 0.0 0.00 0.00 0.00 87 1016.4
20260508073309 16 63 0.0 0.0 0.00 0.00 0.00 87 1016.0
20260508072805 16 62 0.0 1.6 0.00 0.00 0.00 87 1016.2
20260508072306 16 59 0.0 1.6 0.00 0.00 0.00 87 1016.2
20260508071759 16 63 0.0 0.0 0.00 0.00 0.00 87 1016.1
20260508071258 16 54 0.0 1.6 0.00 0.00 0.00 87 1016.3
20260508070754 16 60 0.0 1.6 0.00 0.00 0.00 87 1016.1
20260508070253 16 58 0.0 0.0 0.00 0.00 0.00 87 1016.6
20260508065750 16 43 1.6 3.2 0.00 0.00 0.00 87 1016.7
20260508065248 16 65 0.0 1.6 0.00 0.00 0.00 87 1016.7
20260508064746 16 59 0.0 1.6 0.00 0.00 0.00 87 1016.2
20260508064243 16 63 0.0 0.0 0.00 0.00 0.00 87 1016.2
20260508063740 16 61 0.0 1.6 0.00 0.00 0.00 87 1016.0
20260508063239 16 65 0.0 1.6 0.00 0.00 0.00 87 1016.3
20260508062735 16 65 0.0 1.6 0.00 0.00 0.00 87 1016.2
20260508062233 16 61 0.0 1.6 0.00 0.00 0.00 87 1016.4
20260508061730 16 63 0.0 0.0 0.00 0.00 0.00 87 1016.4
20260508061227 16 58 0.0 0.0 0.00 0.00 0.00 86 1016.3
20260508060723 16 42 0.0 1.6 0.00 0.00 0.00 86 1016.4
20260508060221 16 57 0.0 0.0 0.00 0.00 0.00 86 1015.9
20260508055716 16 61 0.0 3.2 0.00 0.00 0.00 86 1015.9
20260508055214 16 66 0.0 1.6 0.00 0.00 0.00 86 1016.4
20260508054710 16 50 0.0 1.6 0.00 0.00 0.00 87 1016.8
20260508054208 16 60 0.0 0.0 0.00 0.00 0.00 86 1016.4
20260508053704 16 59 0.0 0.0 0.00 0.00 0.00 86 1016.5
20260508053202 16 62 0.0 0.0 0.00 0.00 0.00 86 1016.6
20260508052659 16 62 0.0 0.0 0.00 0.00 0.00 85 1016.4
20260508052156 16 62 0.0 0.0 0.00 0.00 0.00 85 1016.0
20260508051652 16 66 0.0 1.6 0.00 0.00 0.00 85 1016.3
20260508051148 16 66 0.0 0.0 0.00 0.00 0.00 85 1016.5
20260508050644 16 61 0.0 0.0 0.00 0.00 0.00 85 1016.6
20260508050142 16 70 0.0 1.6 0.00 0.00 0.00 85 1016.6
20260508045637 16 60 0.0 0.0 0.00 0.00 0.00 85 1017.2
20260508045136 16 57 0.0 1.6 0.00 0.00 0.00 85 1017.4
20260508044632 16 52 0.0 1.6 0.00 0.00 0.00 85 1017.1
20260508044128 16 57 0.0 0.0 0.00 0.00 0.00 85 1016.5
20260508043625 16 70 0.0 1.6 0.00 0.00 0.00 85 1016.4
20260508043123 16 57 0.0 1.6 0.00 0.00 0.00 85 1016.5
20260508042619 16 61 0.0 0.0 0.00 0.00 0.00 84 1016.1
20260508042117 16 82 0.0 1.6 0.00 0.00 0.00 84 1016.4
20260508041613 16 68 0.0 0.0 0.00 0.00 0.00 85 1016.8
20260508041109 16 61 0.0 0.0 0.00 0.00 0.00 84 1017.0
20260508040606 16 60 0.0 3.2 0.00 0.00 0.00 84 1016.8
20260508040104 17 60 0.0 1.6 0.00 0.00 0.00 84 1016.5
20260508035601 17 62 0.0 1.6 0.00 0.00 0.00 84 1016.4
20260508035058 17 59 0.0 0.0 0.00 0.00 0.00 83 1016.6
20260508034555 17 33 1.6 3.2 0.00 0.00 0.00 83 1016.5
20260508034052 17 76 0.0 0.0 0.00 0.00 0.00 83 1016.7
20260508033549 17 69 0.0 1.6 0.00 0.00 0.00 82 1016.5
20260508033048 17 64 0.0 0.0 0.00 0.00 0.00 82 1016.0
20260508032543 17 47 1.6 3.2 0.00 0.00 0.00 82 1015.8
20260508032042 17 60 0.0 0.0 0.00 0.00 0.00 81 1016.0
20260508031538 17 60 0.0 0.0 0.00 0.00 0.00 82 1015.7
20260508031034 17 51 0.0 3.2 0.00 0.00 0.00 81 1015.7
20260508030531 17 59 0.0 0.0 0.00 0.00 0.00 80 1016.1
20260508030029 17 142 0.0 3.2 0.00 0.00 0.00 80 1016.0
20260508025524 17 62 0.0 0.0 0.00 0.00 0.00 80 1016.0
20260508025022 17 62 0.0 0.0 0.00 0.00 0.00 79 1016.0
20260508024518 17 77 1.6 3.2 0.00 0.00 0.00 79 1016.0
20260508024015 17 170 3.2 4.8 0.00 0.00 0.00 79 1016.0
20260508023511 17 109 1.6 1.6 0.00 0.00 0.00 80 1016.1
20260508023009 17 69 0.0 0.0 0.00 0.00 0.00 80 1016.2
20260508022504 17 45 0.0 1.6 0.00 0.00 0.00 80 1016.2
20260508022001 17 72 0.0 1.6 0.00 0.00 0.00 80 1016.1
20260508021458 17 62 0.0 0.0 0.00 0.00 0.00 80 1016.1
20260508020954 17 70 0.0 1.6 0.00 0.00 0.00 80 1015.7
20260508020452 17 70 0.0 0.0 0.00 0.00 0.00 80 1015.7
20260508015948 17 69 0.0 0.0 0.00 0.00 0.00 80 1015.7
20260508015446 17 59 0.0 1.6 0.00 0.00 0.00 79 1015.9
20260508014943 17 64 0.0 1.6 0.00 0.00 0.00 79 1015.9
20260508014440 17 60 0.0 0.0 0.00 0.00 0.00 79 1016.2
20260508013935 17 48 1.6 1.6 0.00 0.00 0.00 78 1016.3
20260508013431 17 56 0.0 3.2 0.00 0.00 0.00 78 1016.3
20260508012929 17 65 0.0 0.0 0.00 0.00 0.00 78 1016.3
20260508012426 17 44 0.0 0.0 0.00 0.00 0.00 78 1016.4
20260508011923 17 63 0.0 1.6 0.00 0.00 0.00 78 1016.5
20260508011421 17 67 0.0 0.0 0.00 0.00 0.00 78 1016.6
20260508010918 17 61 0.0 1.6 0.00 0.00 0.00 77 1016.8
20260508010415 17 72 0.0 1.6 0.00 0.00 0.00 77 1016.6
20260508005912 17 62 0.0 0.0 0.00 0.00 0.00 76 1016.7
20260508005409 18 58 0.0 3.2 0.00 0.00 0.00 76 1016.5
20260508004906 18 66 0.0 0.0 0.00 0.00 0.00 76 1016.7
20260508004402 18 57 1.6 1.6 0.00 0.00 0.00 75 1016.6
20260508003858 18 67 0.0 3.2 0.00 0.00 0.00 75 1016.5
20260508003355 18 57 0.0 1.6 0.00 0.00 0.00 75 1016.5
20260508002853 18 60 0.0 0.0 0.00 0.00 0.00 74 1016.4
20260508002349 18 63 0.0 0.0 0.00 0.00 0.00 74 1016.7
20260508001845 18 53 0.0 1.6 0.00 0.00 0.00 73 1016.7
20260508001341 18 67 1.6 3.2 0.00 0.00 0.00 73 1016.9
20260508000838 18 61 0.0 1.6 0.00 0.00 0.00 73 1017.1
20260508000335 18 62 0.0 1.6 0.00 0.00 0.00 74 1017.0
20260507235831 18 62 0.0 1.6 0.00 0.00 0.00 73 1016.8
20260507235329 18 65 0.0 1.6 0.00 0.00 0.00 72 1016.9
20260507234825 18 59 0.0 3.2 0.00 0.00 0.00 72 1017.0
20260507234322 18 50 1.6 3.2 0.00 0.00 0.00 72 1017.2
20260507233818 18 60 0.0 1.6 0.00 0.00 0.00 71 1016.8
20260507233316 18 62 0.0 1.6 0.00 0.00 0.00 71 1016.9
20260507232814 18 48 0.0 1.6 0.00 0.00 0.00 71 1017.0
20260507232310 18 39 0.0 3.2 0.00 0.00 0.00 71 1016.9
20260507231807 19 77 0.0 1.6 0.00 0.00 0.00 71 1017.1
20260507231304 19 59 1.6 4.8 0.00 0.00 0.00 70 1016.8
20260507230800 19 50 0.0 4.8 0.00 0.00 0.00 70 1016.4
20260507230258 19 78 1.6 1.6 0.00 0.00 0.00 70 1016.7
20260507225757 19 62 0.0 1.6 0.00 0.00 0.00 70 1016.8
20260507225254 19 69 0.0 1.6 0.00 0.00 0.00 70 1017.0
20260507224750 19 22 1.6 3.2 0.00 0.00 0.00 69 1017.3
20260507224247 19 58 0.0 1.6 0.00 0.00 0.00 69 1017.3
20260507223743 20 54 1.6 6.4 0.00 0.00 0.00 69 1017.3
20260507223240 20 67 1.6 1.6 0.00 0.00 0.00 68 1017.3
20260507222737 19 46 0.0 3.2 0.00 0.00 0.00 68 1017.3
20260507222233 19 7 1.6 3.2 0.00 0.00 0.00 69 1017.4
20260507221730 20 66 1.6 3.2 0.00 0.00 0.00 68 1017.4
20260507221226 20 61 0.0 1.6 0.00 0.00 0.00 69 1017.3
20260507220723 20 53 0.0 1.6 0.00 0.00 0.00 69 1017.3
20260507220221 20 9 0.0 1.6 0.00 0.00 0.00 69 1016.9
20260507215717 20 63 0.0 3.2 0.00 0.00 0.00 69 1016.9
20260507215215 20 65 1.6 4.8 0.00 0.00 0.00 69 1016.7
20260507214712 20 39 1.6 3.2 0.00 0.00 0.00 69 1016.9
20260507214209 20 60 0.0 3.2 0.00 0.00 0.00 69 1017.4
20260507213704 20 55 0.0 1.6 0.00 0.00 0.00 69 1017.7
20260507213202 20 52 0.0 1.6 0.00 0.00 0.00 69 1017.6
20260507212657 20 66 0.0 1.6 0.00 0.00 0.00 70 1017.3
20260507212154 20 51 0.0 4.8 0.00 0.00 0.00 70 1016.9
20260507211651 19 45 0.0 3.2 0.00 0.00 0.00 71 1017.0
20260507211146 19 1 1.6 1.6 0.00 0.00 0.00 70 1017.0
20260507210644 18 76 1.6 4.8 0.00 0.00 0.00 69 1016.5
20260507210141 19 51 0.0 6.4 0.00 0.00 0.00 69 1016.3
20260507205637 19 63 0.0 1.6 0.00 0.00 0.00 69 1016.6
20260507205134 19 71 0.0 1.6 0.00 0.00 0.00 70 1016.9
20260507204630 19 77 1.6 4.8 0.00 0.00 0.00 68 1017.0
20260507204128 20 53 0.0 1.6 0.00 0.00 0.00 69 1017.3
20260507203626 20 43 1.6 3.2 0.00 0.00 0.00 68 1017.6
20260507203123 20 60 1.6 1.6 0.00 0.00 0.00 69 1017.6
20260507202619 20 95 0.0 4.8 0.00 0.00 0.00 68 1017.7
20260507202115 20 316 3.2 4.8 0.00 0.00 0.00 67 1017.6
20260507201610 20 24 1.6 6.4 0.00 0.00 0.00 66 1017.5
20260507201108 20 36 1.6 4.8 0.00 0.00 0.00 67 1017.7
20260507200603 20 27 3.2 4.8 0.00 0.00 0.00 67 1017.8
20260507200059 20 69 1.6 11.3 0.00 0.00 0.00 66 1018.1
20260507195557 20 30 3.2 4.8 0.00 0.00 0.00 67 1018.2
20260507195054 21 47 1.6 1.6 0.00 0.00 0.00 67 1018.2
20260507194550 21 53 3.2 3.2 0.00 0.00 0.00 65 1018.3
20260507194046 21 6 3.2 3.2 0.00 0.00 0.00 66 1018.2
20260507193543 21 64 0.0 3.2 0.00 0.00 0.00 67 1018.4
20260507193040 20 67 0.0 4.8 0.00 0.00 0.00 66 1018.4
20260507192536 21 72 1.6 6.4 0.00 0.00 0.00 66 1018.4
20260507192033 21 28 0.0 4.8 0.00 0.00 0.00 66 1018.5
20260507191528 20 328 1.6 6.4 0.00 0.00 0.00 65 1018.2
20260507191026 21 60 1.6 6.4 0.00 0.00 0.00 66 1017.8
20260507190523 21 70 0.0 1.6 0.00 0.00 0.00 65 1018.1
20260507190022 21 39 1.6 1.6 0.00 0.00 0.00 64 1018.0
20260507185520 21 95 3.2 3.2 0.00 0.00 0.00 63 1018.0
20260507185016 21 77 3.2 4.8 0.00 0.00 0.00 64 1018.4
20260507184514 21 59 0.0 1.6 0.00 0.00 0.00 65 1018.5
20260507184012 21 43 1.6 3.2 0.00 0.00 0.00 66 1018.7
20260507183507 21 103 3.2 3.2 0.00 0.00 0.00 64 1018.9
20260507183005 21 65 0.0 1.6 0.00 0.00 0.00 65 1018.4
20260507182501 21 61 0.0 3.2 0.00 0.00 0.00 65 1018.1
20260507181957 21 70 0.0 1.6 0.00 0.00 0.00 63 1018.4
20260507181454 21 58 1.6 1.6 0.00 0.00 0.00 64 1019.0
20260507180950 21 63 0.0 1.6 0.00 0.00 0.00 65 1019.2
20260507180447 21 61 0.0 1.6 0.00 0.00 0.00 65 1019.7
20260507175943 21 47 1.6 3.2 0.00 0.00 0.00 65 1019.4
20260507175440 21 57 3.2 4.8 0.00 0.00 0.00 64 1019.9
20260507174938 21 67 0.0 3.2 0.00 0.00 0.00 66 1019.7
20260507174434 21 43 1.6 4.8 0.00 0.00 0.00 66 1019.2
20260507173932 21 55 0.0 4.8 0.00 0.00 0.00 65 1019.1
20260507173429 21 57 0.0 3.2 0.00 0.00 0.00 66 1018.9
20260507172926 20 61 0.0 1.6 0.00 0.00 0.00 69 1019.0
20260507172422 19 51 0.0 3.2 0.00 0.00 0.00 70 1018.9
20260507171918 20 52 1.6 3.2 0.00 0.00 0.00 70 1019.1
20260507171415 19 63 3.2 3.2 0.00 0.00 0.00 69 1019.4
20260507170912 19 49 1.6 3.2 0.00 0.00 0.00 70 1019.3
20260507170409 18 26 4.8 4.8 0.00 0.00 0.00 71 1019.5
20260507165905 18 60 0.0 1.6 0.00 0.00 0.00 71 1019.8
20260507165401 19 61 0.0 1.6 0.00 0.00 0.00 71 1019.6
20260507164857 18 59 0.0 0.0 0.00 0.00 0.00 71 1019.4
20260507164354 18 54 0.0 1.6 0.00 0.00 0.00 71 1019.7
20260507163851 18 53 1.6 4.8 0.00 0.00 0.00 73 1019.8
20260507163348 18 53 1.6 4.8 0.00 0.00 0.00 73 1019.8
20260507162845 17 52 1.6 3.2 0.00 0.00 0.00 73 1019.7
20260507162340 17 24 1.6 3.2 0.00 0.00 0.00 73 1019.7
20260507161838 17 63 0.0 3.2 0.00 0.00 0.00 75 1019.7
20260507161334 17 38 1.6 3.2 0.00 0.00 0.00 74 1019.5
20260507160831 17 71 1.6 1.6 0.00 0.00 0.00 75 1019.3
20260507160326 17 57 0.0 3.2 0.00 0.00 0.00 75 1019.3
20260507155823 17 60 1.6 3.2 0.00 0.00 0.00 75 1019.5
20260507155319 17 36 1.6 4.8 0.00 0.00 0.00 74 1019.8
20260507154816 17 55 0.0 1.6 0.00 0.00 0.00 74 1019.4
20260507154313 17 58 0.0 1.6 0.00 0.00 0.00 75 1019.2
20260507153810 17 55 1.6 4.8 0.00 0.00 0.00 74 1019.2
20260507153306 17 59 1.6 1.6 0.00 0.00 0.00 74 1019.0
20260507152803 17 61 1.6 4.8 0.00 0.00 0.00 74 1018.7
20260507152259 17 49 1.6 3.2 0.00 0.00 0.00 75 1018.9
20260507151755 16 70 1.6 4.8 0.00 0.00 0.00 77 1019.1
20260507151251 16 20 0.0 3.2 0.00 0.00 0.00 79 1018.6
20260507150748 16 144 6.4 9.7 0.00 0.00 0.00 78 1018.4
20260507150245 16 6 1.6 4.8 0.00 0.00 0.00 78 1019.1
20260507145741 16 56 0.0 4.8 0.00 0.00 0.00 78 1019.3
20260507145238 16 44 3.2 4.8 0.00 0.00 0.00 79 1019.4
20260507144735 16 55 0.0 3.2 0.00 0.00 0.00 81 1019.5